GFSNW_sfc_30mbdewp_036.txt.gz
Dewpoint
49 49 48 48 49 51 51 40 32 53 39 26 33 27 33 37 28 31 31 29 25 25 28 30 29 29 30 37 34 25 29 23 21 22 26 29 25 25 22 7 13 23 21 19
48 48 48 48 49 51 49 43 50 52 35 22 28 31 32 33 28 30 30 31 31 33 32 29 32 33 36 33 32 28 28 24 20 19 22 26 23 28 27 24 25 20 15 11
48 48 48 49 50 51 48 45 40 45 41 33 26 27 28 31 34 33 32 32 33 33 34 35 33 34 35 32 32 36 30 26 21 15 16 23 18 25 27 24 20 20 19 17
48 48 48 49 50 51 50 43 39 41 35 35 27 23 30 31 29 32 32 30 31 31 32 33 33 36 33 31 34 34 28 23 27 25 26 23 19 19 25 23 22 17 16 21
48 48 48 49 49 51 47 44 36 34 34 38 32 31 33 30 32 32 30 29 34 33 31 30 32 33 30 21 34 33 33 26 25 24 28 27 22 21 21 24 23 24 24 22
48 48 48 49 50 49 45 48 45 34 34 38 32 32 32 33 34 38 36 33 32 32 34 37 37 36 35 32 31 32 28 27 24 16 25 18 12 17 19 22 25 22 19 21
48 50 50 50 50 49 49 50 46 36 28 31 35 35 35 34 34 33 38 36 32 35 35 32 30 33 37 37 37 34 28 24 18 7 14 -3 7 26 25 23 25 27 28 30
49 49 50 50 50 51 52 52 45 38 29 29 30 37 38 40 40 40 40 41 39 35 26 27 27 24 28 31 36 32 31 24 18 9 11 10 9 23 26 25 22 31 30 32
47 48 49 49 49 49 53 53 46 42 32 32 38 39 39 36 37 38 41 43 39 33 23 19 24 23 21 21 31 35 28 24 19 20 6 -2 8 27 30 28 22 30 33 33
48 50 50 50 49 49 52 53 50 44 42 46 42 37 37 39 37 37 40 39 38 33 24 20 18 17 21 16 18 29 32 30 24 19 14 15 19 29 30 21 15 33 35 34
49 49 50 52 51 51 52 52 53 45 45 47 48 47 40 40 38 34 39 36 37 31 28 23 21 20 26 25 27 29 25 25 25 24 22 13 26 30 26 27 30 33 36 35
49 49 50 52 52 51 50 50 53 51 47 47 48 47 48 48 40 41 39 35 37 34 29 25 29 24 31 27 17 31 23 25 20 25 20 26 28 31 33 34 33 36 37 37
49 49 51 52 51 51 52 51 49 46 44 45 45 45 47 47 48 45 36 39 40 37 35 31 30 20 32 21 26 29 31 30 25 26 24 28 31 31 37 38 36 38 39 38
49 51 51 52 52 52 51 48 49 42 42 40 43 47 45 46 49 48 45 43 42 40 37 32 29 20 32 26 27 29 29 31 29 29 30 32 34 37 36 38 39 39 39 38
49 50 51 51 51 51 51 50 49 48 32 38 42 44 44 47 48 46 45 42 41 39 36 35 30 30 33 34 33 29 32 28 26 22 26 30 30 35 39 39 39 39 35 32
47 48 50 51 50 46 39 38 48 48 44 39 38 42 42 44 46 46 46 45 42 40 39 37 36 40 35 33 33 34 35 36 33 30 37 35 38 39 40 39 39 31 27 24
48 48 49 49 49 49 41 38 47 46 44 36 37 38 39 42 43 43 43 43 43 42 39 37 37 39 38 35 32 34 37 37 38 38 39 38 40 39 39 35 26 23 23 26
48 49 48 48 48 47 47 47 46 46 36 33 30 33 38 41 41 40 41 40 40 39 39 38 37 38 37 35 37 37 38 39 39 40 40 39 34 26 24 24 27 31 33 30
47 46 46 44 45 44 46 46 45 43 37 29 29 25 28 40 37 37 39 38 38 37 38 38 38 35 34 34 33 35 36 37 38 38 30 27 28 31 33 34 34 33 30 25
45 44 39 39 44 44 43 40 37 38 39 38 32 34 34 38 37 36 35 35 34 32 33 38 36 34 33 31 31 32 33 36 38 31 29 30 33 33 33 33 33 31 28 25
43 41 41 44 42 41 37 35 35 36 34 36 35 36 35 38 36 35 33 32 32 28 29 31 29 29 30 33 34 34 35 35 34 34 35 35 34 33 32 32 29 25 23 21
42 42 41 38 37 37 33 33 34 34 33 35 36 36 37 37 36 34 34 30 31 27 33 30 27 27 31 35 35 36 36 36 36 36 35 34 34 34 30 21 18 20 24 25
39 37 37 36 35 33 31 30 31 32 34 34 35 35 35 36 36 34 33 30 29 34 30 28 29 28 34 35 35 34 33 34 34 33 32 27 23 23 22 23 24 26 26 26
36 36 34 32 31 31 31 32 32 32 33 34 34 33 34 33 34 32 31 31 32 28 26 24 30 32 29 24 27 24 23 23 22 21 22 22 23 23 24 25 25 25 24 26
33 32 29 28 30 31 31 32 32 33 34 34 34 33 34 32 31 30 29 26 24 24 23 28 30 30 30 28 26 22 22 23 23 23 24 24 24 24 24 25 26 26 26 25
32 30 28 30 30 29 31 32 32 34 34 34 34 31 29 28 28 26 25 24 22 24 28 30 31 31 33 34 33 24 25 25 24 24 24 25 24 25 25 26 25 25 25 26
28 30 32 32 31 31 31 32 33 35 32 29 29 27 25 28 25 25 27 23 27 30 32 32 33 33 34 34 28 27 25 24 25 25 26 27 27 26 27 27 28 28 28 27

GFSNW_sfc_30mbdewp_042.txt.gz
Dewpoint
48 51 52 50 49 49 50 43 34 57 53 41 43 33 28 33 32 38 28 24 22 22 26 25 22 23 26 35 31 28 30 28 26 24 26 28 26 25 23 14 15 25 23 8
48 49 51 50 49 49 47 40 45 53 48 39 37 31 29 34 29 30 31 27 28 31 28 27 30 31 36 35 31 30 29 27 24 23 24 28 24 26 24 24 25 19 20 6
48 48 51 49 49 50 47 39 39 49 45 38 33 29 26 29 36 33 33 33 35 33 32 35 33 33 35 35 34 31 29 28 24 19 19 24 23 25 24 20 19 13 15 5
47 48 50 49 49 50 51 41 34 39 40 38 31 29 27 24 31 34 34 33 31 30 32 32 33 34 32 35 36 35 32 25 25 25 24 23 22 22 25 21 19 19 9 9
48 48 50 49 49 50 49 40 39 41 39 35 30 28 28 24 32 32 31 31 33 33 31 29 32 33 31 30 35 34 33 28 28 26 27 25 23 22 21 24 22 21 19 16
47 48 49 48 48 50 48 49 43 37 38 33 27 27 28 26 34 38 36 34 34 34 36 38 38 37 33 31 34 34 32 31 27 21 23 22 20 23 21 20 22 23 18 19
48 49 48 48 48 50 49 49 40 37 33 32 26 28 32 32 33 34 37 37 35 39 39 37 36 36 34 32 32 33 31 29 28 22 16 7 12 21 21 21 21 21 22 22
49 48 48 48 48 50 53 53 43 38 35 33 29 30 37 39 40 40 39 41 40 39 36 34 32 32 32 34 32 30 29 27 22 22 15 13 8 16 16 19 14 23 22 22
48 48 48 48 48 49 50 55 51 43 33 35 29 35 39 38 39 40 40 39 38 35 35 34 31 30 29 29 32 33 29 30 29 23 19 15 16 25 31 29 18 27 28 29
47 47 48 48 48 50 52 55 52 45 41 39 41 32 37 41 40 40 38 37 37 36 35 31 33 30 26 24 22 28 33 33 31 29 27 23 21 22 31 19 16 29 31 31
47 47 48 48 48 50 52 54 54 49 48 46 48 44 41 41 40 39 39 36 38 37 33 35 33 32 27 25 25 28 26 29 28 28 26 18 24 30 25 29 32 31 34 34
47 48 48 48 49 50 52 52 53 52 48 47 49 48 49 47 43 41 39 40 38 38 38 36 35 31 31 32 27 30 26 29 28 26 24 29 28 31 34 35 34 34 35 35
47 47 48 49 49 50 52 53 53 51 48 46 47 46 48 49 49 49 39 41 41 38 41 38 37 24 34 28 30 31 30 31 29 27 25 27 30 31 32 34 34 35 36 37
47 48 49 49 49 51 52 50 51 51 48 43 45 47 47 48 50 49 46 44 42 39 39 38 32 29 34 32 30 30 30 31 29 29 28 27 30 34 38 39 40 39 40 40
48 48 49 49 49 50 51 50 49 51 46 43 45 46 46 47 46 44 43 42 40 41 39 32 34 36 36 36 35 33 31 31 30 29 33 34 33 38 41 40 40 40 37 34
49 49 50 49 48 48 49 44 48 46 48 46 42 44 44 45 46 45 45 44 44 43 41 38 38 38 38 34 32 36 38 38 39 36 39 39 40 37 38 35 34 32 31 32
49 49 48 46 46 46 40 39 47 45 46 45 40 42 42 44 46 44 45 45 44 44 41 38 40 39 39 36 34 35 35 36 39 40 40 38 32 31 33 34 34 33 32 33
49 48 47 46 46 46 46 45 44 44 40 42 36 38 43 43 42 41 42 42 43 41 39 39 38 39 39 37 33 33 34 35 34 32 34 32 33 34 33 33 32 33 33 34
47 46 47 48 47 47 46 44 44 45 41 31 32 35 35 41 38 39 41 41 37 39 38 38 39 35 34 31 31 33 35 35 34 35 35 34 33 32 34 33 33 33 33 31
45 47 41 42 46 44 43 42 40 40 40 39 33 38 35 39 39 36 38 38 36 34 36 38 36 30 32 33 34 34 35 35 34 33 32 33 32 33 33 32 31 29 28 31
45 44 42 45 43 42 39 35 34 37 34 37 36 37 36 38 36 34 36 34 35 32 33 34 33 30 31 34 34 35 35 35 34 34 35 35 34 32 31 31 32 29 27 25
45 45 44 42 39 38 33 33 35 34 33 35 36 36 37 37 38 35 35 32 32 29 33 31 29 30 34 35 35 35 34 33 33 33 32 32 31 29 25 22 23 25 27 27
44 40 37 38 36 31 30 28 31 32 34 35 36 34 37 37 37 35 33 31 30 34 30 28 29 32 34 35 33 33 33 32 31 28 24 23 25 26 26 27 27 28 27 28
37 36 32 33 32 32 31 33 33 32 34 35 36 34 35 35 34 34 31 31 32 28 27 27 29 32 33 31 28 25 24 24 23 23 25 26 26 26 28 28 28 29 28 28
33 33 29 28 30 31 31 33 33 33 34 35 35 35 36 33 32 32 31 28 27 27 26 29 31 32 33 30 24 23 24 25 25 24 26 27 28 28 28 29 26 24 25 24
33 31 29 31 31 30 32 32 32 34 34 34 35 32 32 30 31 29 29 28 26 27 30 31 31 31 32 25 26 26 25 25 26 27 28 29 28 28 26 23 20 22 23 22
32 29 32 32 32 31 31 33 32 34 33 31 32 30 28 30 28 27 28 28 29 31 30 31 31 30 31 31 29 28 27 28 29 28 27 26 24 21 18 15 14 15 17 18

GFSNW_sfc_30mbdewp_045.txt.gz
Dewpoint
47 48 48 50 51 50 49 44 38 50 53 34 39 37 34 31 25 34 27 24 18 18 18 19 17 14 20 29 28 23 24 21 19 22 24 26 24 20 21 18 14 18 23 11
47 48 48 50 51 49 45 43 45 55 48 30 39 36 34 30 25 29 29 22 20 21 21 21 20 19 36 32 31 25 29 19 16 21 24 26 23 22 21 20 22 17 17 14
46 48 48 49 50 49 46 42 41 49 50 33 37 35 32 28 29 30 28 23 22 23 20 23 24 25 34 35 31 31 31 19 19 18 17 22 24 23 22 21 20 15 11 11
46 47 48 50 50 49 47 45 36 41 39 35 36 34 30 27 24 32 32 27 26 25 23 24 26 29 34 35 35 31 31 25 22 21 24 23 21 20 20 21 21 17 16 9
46 47 47 50 50 49 46 44 34 37 33 32 36 34 30 24 22 29 30 26 23 25 26 28 26 30 31 30 35 33 32 26 28 27 25 25 22 22 20 18 19 14 13 12
46 47 48 49 50 48 45 46 47 36 36 35 34 33 30 24 24 37 35 28 23 27 32 37 37 34 32 32 34 33 33 30 28 23 24 22 21 22 19 17 18 18 17 17
46 46 47 47 49 48 44 45 43 38 37 37 34 31 29 26 28 32 35 33 30 40 40 38 36 34 33 33 34 35 34 32 32 24 20 12 13 17 16 19 18 16 17 17
45 47 46 47 48 49 47 53 50 40 40 37 32 29 28 28 36 35 38 40 40 40 37 35 33 33 33 32 29 28 30 30 26 26 16 15 15 12 16 16 15 15 20 17
46 47 47 48 49 49 49 54 55 49 40 37 29 26 26 33 36 40 40 41 40 39 39 38 30 26 25 28 32 30 28 30 25 26 24 21 21 23 26 24 15 19 21 23
47 47 48 48 48 49 49 51 56 51 34 34 32 28 31 30 34 36 40 40 39 39 41 36 34 29 29 27 30 33 34 34 30 30 30 27 23 23 28 18 23 25 27 25
48 48 48 48 48 48 49 50 56 54 42 43 44 35 31 35 34 39 39 38 40 37 37 39 36 37 31 28 25 30 29 33 31 34 32 22 22 26 22 32 27 30 29 30
48 48 48 48 48 48 51 49 55 54 46 47 50 50 49 47 43 37 40 35 38 38 36 41 42 36 34 35 28 28 27 29 29 28 26 28 25 25 30 31 31 31 33 34
47 47 47 47 48 49 51 52 53 51 48 47 46 46 49 48 50 50 39 43 40 40 44 42 43 34 38 32 33 31 29 31 29 26 22 24 27 30 33 35 36 36 37 37
46 47 47 47 48 50 52 54 54 52 50 45 46 49 47 48 49 48 48 45 45 43 43 46 37 37 36 37 33 29 29 30 27 27 24 27 32 37 39 39 39 39 39 39
47 47 48 48 49 51 53 54 52 54 47 44 46 46 47 47 46 46 45 44 42 41 42 36 40 38 39 39 36 33 29 29 31 30 35 36 35 39 39 39 38 38 36 33
47 47 47 49 50 52 51 49 51 50 51 47 44 47 46 46 46 44 44 44 43 43 43 43 39 39 40 37 32 37 37 37 38 36 39 39 39 35 34 34 34 35 35 34
47 48 49 49 50 50 48 43 49 48 50 47 43 44 45 46 46 46 45 46 45 44 43 41 42 40 40 39 34 36 36 36 38 37 38 36 35 35 35 34 35 35 34 34
48 48 48 47 47 47 47 44 45 47 43 45 41 41 45 45 45 44 45 46 45 43 41 41 41 40 41 39 35 35 35 36 34 35 35 35 35 34 33 35 33 32 33 34
47 46 48 49 50 47 46 43 45 47 45 39 40 39 37 43 41 43 44 44 39 42 40 40 40 37 36 34 34 34 35 36 35 35 35 34 33 32 33 33 34 34 32 29
48 47 43 44 47 44 44 44 45 43 42 40 36 40 37 40 41 38 39 40 38 35 37 39 38 34 33 34 34 35 36 36 35 34 33 34 34 33 33 32 29 29 30 26
48 46 44 46 43 45 42 37 38 39 36 37 37 38 37 40 38 35 39 36 37 33 35 34 34 32 32 34 34 35 35 35 35 34 36 34 32 31 29 29 26 24 24 26
48 46 46 45 42 40 33 34 37 36 34 36 36 37 38 38 39 37 37 34 35 30 35 34 30 31 34 34 34 34 34 33 33 33 31 30 29 25 23 23 25 26 28 30
46 43 38 40 39 32 32 28 33 33 35 36 37 35 38 38 38 36 34 32 32 34 31 30 31 33 35 34 33 31 31 31 30 27 24 23 25 27 27 27 28 30 28 29
40 37 32 34 33 32 32 34 33 33 35 38 38 35 36 37 35 35 32 32 33 30 28 29 31 33 35 33 32 30 28 27 23 23 25 26 26 28 30 30 29 28 26 24
35 35 29 29 30 31 32 33 34 34 36 38 37 36 37 34 33 34 32 29 28 29 29 30 32 34 33 29 26 24 24 27 25 25 28 30 30 29 28 25 22 24 24 23
34 32 30 31 31 31 32 33 32 35 36 39 38 34 33 31 32 30 30 30 28 29 32 32 33 34 32 26 25 24 23 25 27 28 29 30 29 27 23 21 18 21 22 20
32 29 32 33 31 30 31 32 32 35 35 32 34 30 29 32 29 28 31 30 32 32 33 33 34 34 30 27 29 29 29 29 29 28 28 26 23 20 17 14 13 11 12 15

GFSNW_sfc_30mbdewp_048.txt.gz
Dewpoint
46 48 49 48 51 51 50 44 36 47 54 42 35 36 35 33 34 28 26 24 18 16 15 16 14 13 16 23 24 23 21 21 20 21 22 22 22 20 20 22 18 21 21 21
45 46 47 48 50 51 48 40 42 52 49 33 33 33 35 32 32 30 27 28 22 20 17 16 16 16 33 28 25 25 25 23 19 18 21 24 23 18 18 19 24 22 22 18
45 45 47 48 50 51 50 39 39 49 49 39 30 31 33 32 33 28 25 26 23 20 20 21 21 20 33 33 31 31 33 25 19 18 16 21 22 23 19 20 24 23 22 15
43 44 47 48 49 50 50 44 37 44 41 42 34 34 32 30 29 30 29 25 24 20 21 20 20 22 35 34 35 31 29 21 17 16 18 19 22 22 19 18 20 21 23 17
42 44 46 48 49 50 48 41 39 42 38 39 36 32 35 30 30 26 28 27 23 21 22 21 21 25 33 30 35 30 31 26 28 26 26 23 23 21 19 19 18 16 18 17
42 44 46 47 47 50 45 43 46 44 39 38 34 34 36 33 29 27 26 28 27 26 27 31 36 31 33 30 34 32 31 32 31 28 26 23 20 21 21 19 18 18 17 20
43 46 47 47 48 49 46 42 45 45 37 36 33 33 35 33 29 28 29 32 28 36 39 37 35 34 34 34 34 34 33 34 34 28 22 17 19 17 14 16 15 13 13 16
45 46 47 48 48 50 49 44 48 48 40 35 32 32 35 34 30 33 38 39 40 40 39 37 35 35 30 31 30 32 33 35 32 27 22 20 19 15 16 17 17 20 19 20
45 45 46 47 48 48 49 49 51 52 44 36 30 33 34 34 33 40 43 42 43 40 40 37 31 29 27 26 29 28 28 34 29 27 25 20 24 22 22 21 15 21 20 21
45 45 46 46 46 46 44 46 49 50 47 40 33 33 34 35 41 43 41 41 40 42 43 36 30 28 26 26 31 33 34 34 31 31 29 31 25 24 26 18 28 28 28 26
45 46 46 45 46 45 45 44 48 49 49 42 39 35 33 34 41 41 44 40 39 41 35 35 38 36 32 27 29 34 34 35 33 35 34 27 23 24 24 33 29 30 30 31
45 46 46 46 47 47 47 45 50 51 49 48 50 49 49 48 48 43 43 38 40 42 38 40 43 38 37 36 29 27 27 32 33 34 32 29 24 27 30 31 32 34 34 34
44 45 47 47 47 47 48 47 50 54 49 46 45 47 49 49 50 51 42 43 39 40 44 46 45 37 42 33 34 32 29 32 31 28 23 26 28 34 38 37 37 37 38 39
43 47 47 47 47 48 48 48 51 55 49 43 46 49 47 48 49 49 50 46 48 48 48 47 38 39 39 40 34 33 32 30 28 27 26 31 36 40 40 39 40 39 38 35
42 47 47 48 48 48 49 51 54 55 51 43 46 46 47 46 47 46 47 48 45 46 44 33 41 40 41 42 38 34 32 30 31 33 38 38 38 36 37 36 35 34 32 33
47 47 47 48 48 49 50 47 52 55 55 46 43 47 46 45 45 44 45 45 44 44 47 44 41 41 43 36 34 35 37 37 38 38 39 39 36 35 36 36 36 36 35 35
47 47 47 48 49 50 50 45 49 48 53 47 43 43 46 47 46 46 46 47 47 45 44 44 42 40 42 40 36 36 36 36 38 37 38 36 36 35 35 35 35 34 33 32
47 47 48 49 49 49 48 47 45 48 45 48 41 41 44 46 46 45 47 47 45 44 42 42 42 42 43 39 36 35 35 36 35 35 37 36 35 35 34 34 33 32 33 33
48 48 49 51 50 48 46 44 47 50 45 43 41 39 38 44 43 44 44 45 39 43 40 40 42 38 37 37 35 35 36 35 35 35 35 34 33 33 33 33 33 32 30 29
48 50 47 46 47 44 44 45 42 43 43 41 38 42 39 42 42 40 40 41 39 36 38 40 38 35 34 35 35 36 36 36 36 34 33 33 32 32 32 31 31 28 25 25
48 44 45 46 44 46 43 37 37 40 38 38 39 40 39 42 38 36 41 37 37 33 35 36 33 32 33 34 35 36 36 36 35 35 34 33 33 32 31 26 26 27 29 29
46 45 46 47 43 42 34 34 37 37 34 37 37 38 39 40 41 38 39 34 35 31 36 35 31 32 33 34 34 35 35 35 34 33 31 31 29 26 25 26 28 30 30 30
46 42 38 39 38 32 30 28 32 32 35 36 38 36 38 39 38 36 34 32 32 35 31 29 32 33 34 34 33 33 34 33 31 29 26 26 28 30 29 30 31 30 29 27
40 37 32 35 32 31 31 32 33 33 36 38 37 36 36 38 34 36 31 33 32 29 27 29 32 34 34 32 32 31 29 27 25 26 27 29 29 29 28 28 27 25 22 23
35 35 28 28 30 32 32 34 34 35 39 38 37 37 36 34 33 34 32 30 28 30 30 31 33 35 34 33 30 28 27 26 26 28 30 30 30 28 25 23 23 24 23 22
33 32 30 32 32 31 32 32 32 35 37 40 38 35 32 31 33 31 30 29 28 30 32 33 35 35 33 28 27 27 25 28 29 30 30 30 29 26 22 19 17 23 19 17
32 29 32 32 31 30 31 32 32 36 36 33 34 31 29 32 30 29 32 29 31 32 32 34 35 33 29 28 29 29 30 30 30 30 29 26 23 20 17 15 12 10 15 13

GFSNW_sfc_30mbdewp_051.txt.gz
Dewpoint
43 46 47 49 49 51 51 47 40 47 52 42 41 38 36 38 36 35 35 28 26 23 17 18 16 17 18 22 26 24 28 29 30 27 32 31 23 23 25 18 17 23 22 19
42 44 47 48 49 50 49 44 41 50 47 30 36 35 34 35 35 35 33 28 28 28 23 20 19 18 34 28 26 25 31 24 19 24 25 26 23 22 20 21 28 21 18 18
42 42 47 47 49 50 50 42 38 46 47 34 30 34 30 31 35 36 34 32 29 28 24 24 23 31 34 34 33 31 31 27 23 18 18 21 21 23 23 21 21 21 21 22
43 42 46 45 49 49 50 44 37 44 40 40 36 32 30 31 34 36 35 32 29 27 24 22 21 33 34 34 34 31 29 24 23 20 22 25 22 23 23 22 22 21 21 22
42 43 45 45 48 49 46 41 39 44 42 41 41 36 30 30 32 34 32 32 29 28 24 24 22 30 33 31 34 31 32 26 25 25 28 25 23 23 23 22 20 19 20 20
39 40 41 45 46 48 42 44 45 42 40 41 40 37 32 30 33 33 33 30 30 30 26 30 32 34 34 33 31 30 32 30 30 27 25 23 22 22 22 22 22 20 18 21
38 39 41 45 46 46 44 43 44 42 38 41 39 34 35 33 33 33 33 30 30 34 40 38 38 37 35 36 36 34 34 32 32 27 23 20 23 20 14 16 19 20 20 26
40 40 42 45 45 48 42 46 46 44 39 40 39 34 34 32 34 37 35 37 44 40 39 37 33 32 30 33 34 35 38 35 32 26 22 24 22 17 18 17 19 22 22 23
41 43 44 44 45 48 45 42 49 48 44 39 39 35 33 33 35 37 44 47 46 46 40 36 30 27 28 29 28 33 34 36 28 31 23 17 24 22 23 20 21 28 27 30
44 43 43 43 46 46 46 43 47 46 43 46 40 35 32 35 39 40 43 44 42 47 39 33 28 28 29 28 29 28 29 31 28 26 20 26 31 25 25 15 23 30 31 33
43 44 45 46 47 47 47 43 46 46 44 44 48 37 33 35 42 39 44 40 45 44 35 33 35 30 29 31 35 32 29 28 28 34 29 22 27 24 23 32 34 34 34 35
44 44 46 46 47 47 46 40 44 47 44 45 48 51 50 40 43 43 46 39 40 41 37 41 39 34 35 32 28 35 29 34 30 32 31 35 35 36 38 38 37 37 38 39
45 45 46 46 46 45 44 41 45 46 44 44 46 48 48 50 47 47 40 44 46 44 48 44 43 32 38 30 32 30 33 34 32 29 32 37 40 40 39 40 40 38 36 36
45 45 46 46 46 45 45 43 46 48 44 40 45 50 48 49 51 51 47 44 48 50 48 40 37 35 41 35 33 33 33 31 30 30 39 39 38 39 40 38 37 34 34 34
45 46 46 46 46 47 47 47 48 50 45 43 44 49 48 48 49 49 48 49 49 46 35 32 39 42 40 39 36 33 34 32 27 30 39 37 36 37 37 35 35 35 34 33
44 46 46 47 47 48 45 41 48 49 50 47 41 47 46 47 47 47 47 47 47 47 43 42 41 42 39 31 31 36 38 40 40 39 38 36 36 36 37 36 35 34 33 33
42 44 46 47 48 47 45 44 49 50 50 47 41 41 46 48 48 48 48 48 46 46 44 43 39 40 40 38 35 36 39 37 37 38 37 35 35 35 35 34 33 33 32 33
44 45 47 48 48 50 46 50 50 48 50 45 40 41 43 46 45 43 47 46 44 43 41 42 41 41 41 36 36 35 36 36 36 37 37 36 35 34 33 33 33 33 32 32
47 47 47 47 48 45 48 51 45 49 46 39 40 38 38 44 43 44 43 44 38 43 39 40 39 37 36 36 35 36 35 36 35 35 35 34 33 32 33 33 32 32 30 28
47 47 47 42 46 48 47 45 39 42 41 40 38 42 39 41 40 40 39 40 38 36 38 39 37 33 35 35 36 37 36 36 35 33 33 33 32 32 32 32 29 27 28 28
48 46 43 46 47 46 43 37 36 40 34 37 39 40 39 42 37 36 39 37 37 31 34 34 33 32 34 35 36 37 36 36 35 34 34 33 33 31 28 29 29 29 29 28
47 46 48 47 44 39 33 33 36 35 33 37 37 38 39 39 42 37 38 34 34 31 36 34 30 33 34 35 36 36 36 35 35 34 34 33 31 28 29 29 29 28 26 27
46 41 40 39 37 32 29 28 31 31 34 37 38 36 37 38 37 35 34 32 31 34 30 29 31 33 34 35 35 35 35 33 30 29 30 30 30 30 30 30 30 25 22 23
38 36 32 33 31 29 30 31 32 33 35 37 37 36 35 37 34 35 31 32 32 28 27 28 32 34 34 34 34 32 30 28 29 29 29 28 28 27 26 24 23 23 20 21
33 33 28 28 30 32 32 33 33 35 38 37 36 36 34 34 32 33 32 30 27 29 28 31 34 34 32 31 28 27 28 29 29 29 28 28 25 24 24 23 21 20 17 17
33 31 30 32 31 31 32 32 33 35 36 38 38 34 32 31 32 31 30 27 28 29 31 33 35 34 32 28 27 28 29 29 30 30 30 28 24 22 19 21 19 16 13 15
31 29 31 32 31 29 30 32 33 35 36 33 33 29 29 32 30 29 30 27 29 31 32 35 35 32 28 30 29 30 30 30 30 29 26 23 22 19 17 12 16 17 14 15

GFSNW_sfc_30mbdewp_057.txt.gz
Dewpoint
43 43 43 43 44 45 45 40 34 49 50 40 38 34 35 35 32 33 34 36 35 30 22 20 20 19 19 22 25 19 26 23 18 19 29 32 26 24 24 19 18 23 20 16
41 44 43 42 43 46 43 35 38 49 47 36 34 35 35 36 32 34 31 34 35 34 25 19 22 22 24 29 26 24 29 25 19 19 25 31 29 28 28 27 25 20 17 18
41 44 42 40 42 44 42 35 35 42 44 40 35 33 34 34 36 34 34 34 35 33 30 27 23 22 33 34 29 31 28 27 22 19 19 23 25 25 24 25 20 20 21 19
42 40 43 41 41 44 41 37 31 37 35 38 38 33 34 34 33 35 33 31 32 32 30 27 25 33 33 34 32 32 28 23 24 23 23 22 22 22 25 23 24 21 21 22
42 42 41 42 43 45 40 34 36 40 37 36 37 33 31 33 34 31 30 27 30 29 29 29 25 32 31 29 32 30 30 23 24 24 27 26 24 24 23 23 23 24 23 22
42 42 41 41 40 43 40 34 41 40 35 34 35 35 32 31 33 33 31 29 27 25 33 36 35 32 33 30 29 28 28 26 23 19 25 24 23 24 24 23 23 22 19 21
41 40 39 39 40 41 41 33 41 39 32 35 32 33 33 32 32 30 31 29 29 32 37 37 37 37 37 35 34 33 28 26 25 20 24 17 21 27 25 23 23 24 24 26
41 40 39 40 39 40 39 40 40 41 33 36 36 34 35 32 32 32 31 30 28 38 38 33 32 33 34 33 37 37 34 29 26 21 22 22 24 21 21 19 21 26 28 30
40 39 38 39 39 38 41 40 43 41 38 35 37 35 36 34 32 31 32 37 42 42 38 33 29 28 31 32 32 35 34 33 25 26 24 23 26 27 22 23 17 27 29 32
38 38 39 39 41 40 41 41 46 42 40 41 41 38 37 37 35 33 32 41 44 44 35 32 30 28 31 29 29 31 33 31 28 27 26 26 27 25 22 15 16 29 31 32
38 39 39 40 41 41 41 40 46 42 41 42 46 45 39 38 36 33 39 38 42 40 36 35 32 28 31 29 30 29 30 31 30 27 26 26 29 28 18 21 33 33 35 37
38 38 39 40 42 43 42 40 46 47 41 42 45 45 45 44 42 37 41 37 41 40 37 38 36 34 33 31 26 33 27 29 29 30 29 32 35 28 34 35 34 36 37 38
40 40 40 38 40 42 42 40 44 41 38 38 42 42 46 48 47 49 36 42 43 43 43 40 40 34 35 31 32 34 33 34 29 31 35 37 38 39 38 38 37 38 39 38
41 41 41 41 42 40 44 40 44 40 40 37 38 48 48 51 51 50 48 43 48 46 44 40 38 35 39 36 35 35 34 35 35 36 38 38 39 37 36 36 35 35 34 32
41 41 41 42 42 45 43 44 44 43 41 38 37 43 47 50 51 51 48 47 47 42 39 37 35 38 37 36 36 35 34 34 33 30 37 34 37 36 36 35 34 33 32 31
41 42 42 46 45 43 40 38 44 47 43 40 35 44 47 49 52 49 47 47 47 44 41 41 41 42 37 34 31 34 38 38 35 33 39 37 36 35 35 34 33 32 31 30
43 45 45 45 44 41 37 34 40 46 43 38 35 36 45 49 49 47 48 47 45 45 43 41 39 41 36 32 30 36 38 37 37 37 36 34 34 33 33 32 32 31 31 31
44 45 45 44 42 41 37 46 47 44 40 40 35 36 40 46 44 44 45 43 42 42 42 41 40 40 37 31 36 37 36 36 36 36 36 35 33 32 31 32 31 31 30 29
45 45 45 43 40 36 40 47 45 48 39 35 35 35 33 43 41 41 41 40 37 41 39 40 40 37 37 36 36 36 36 36 34 33 33 33 32 32 31 30 28 27 27 27
45 41 37 34 38 47 47 43 41 42 42 41 37 39 38 41 38 38 39 37 37 35 38 40 37 36 37 37 37 37 36 35 34 33 32 32 32 31 30 28 27 27 26 27
38 37 37 43 46 40 39 35 33 35 34 36 37 39 38 41 37 36 37 36 34 33 36 35 33 33 34 37 37 36 36 35 35 35 34 33 32 31 29 28 27 26 26 26
40 42 46 46 42 37 33 32 33 34 32 35 37 38 39 40 39 36 36 34 32 31 36 33 31 33 36 36 36 36 36 35 34 34 34 33 32 30 29 28 27 27 26 20
43 41 38 37 33 31 30 28 29 30 34 36 37 36 37 36 35 33 32 29 29 33 32 30 31 35 37 36 35 35 35 34 33 32 31 30 29 28 27 26 26 23 20 18
37 35 30 31 29 29 29 31 31 34 34 36 36 34 35 35 33 32 31 32 31 26 25 26 32 35 35 34 33 33 32 31 30 30 29 27 25 24 24 24 20 17 13 17
33 32 27 27 30 31 32 33 33 34 36 35 34 34 34 32 32 32 32 30 26 26 26 30 33 35 32 31 31 30 29 29 29 29 28 26 23 21 21 20 18 16 16 15
32 30 30 32 31 30 31 32 33 34 34 35 33 32 31 30 31 30 28 26 25 27 30 32 33 31 30 30 30 30 30 29 29 28 28 26 23 20 19 19 16 15 14 13
29 28 31 31 30 29 30 31 31 34 33 31 29 28 29 32 28 26 27 25 27 30 32 31 31 31 30 30 30 30 30 29 28 26 24 22 21 17 15 15 16 15 15 14

GFSNW_sfc_30mbdewp_060.txt.gz
Dewpoint
43 41 42 44 44 42 43 41 31 42 50 39 40 36 34 35 35 35 33 34 35 29 22 20 20 19 19 22 23 19 25 21 16 19 29 28 27 26 25 21 19 23 21 18
43 42 41 44 44 42 40 37 32 48 46 32 36 37 34 35 33 33 31 32 35 35 26 18 21 22 24 24 22 21 27 21 14 16 24 31 29 28 27 26 25 21 19 20
43 42 41 43 43 43 41 36 29 39 42 34 32 34 34 33 36 34 34 34 35 33 31 26 22 22 29 30 25 28 26 25 16 13 15 23 26 27 28 26 23 22 21 21
43 42 42 43 43 44 42 37 29 37 33 33 34 34 33 32 32 34 35 33 33 32 30 28 25 30 33 34 34 31 26 20 24 22 22 23 21 22 25 25 23 20 21 21
43 42 42 42 42 44 42 34 31 37 34 34 34 36 31 31 33 34 32 32 30 32 30 27 27 33 32 29 32 30 29 22 24 22 26 26 24 24 25 25 24 24 23 22
43 42 42 43 43 42 37 38 39 38 33 34 32 33 32 32 33 34 33 32 30 29 30 29 32 35 34 33 31 30 27 25 23 21 25 25 22 24 24 24 24 23 21 23
43 42 41 41 42 41 39 38 38 36 31 34 31 31 32 32 33 33 34 35 31 31 32 33 36 37 37 35 34 33 28 25 24 20 23 19 22 27 26 25 24 24 23 24
43 42 41 43 41 42 39 39 40 37 32 34 33 32 32 31 33 34 33 34 33 33 35 33 32 33 33 34 37 35 33 27 23 20 21 21 21 24 23 22 17 25 24 29
42 41 41 41 42 43 40 40 39 40 36 33 33 33 33 31 32 32 33 34 38 40 33 29 28 29 31 30 33 35 32 30 23 24 19 17 21 25 23 21 17 26 29 31
42 41 41 41 42 42 40 38 40 39 35 39 37 33 32 34 33 32 32 35 35 39 31 31 29 29 33 29 29 32 31 30 23 24 23 25 29 25 22 18 19 26 30 32
41 41 41 41 41 42 39 37 42 39 37 41 45 41 36 36 34 31 36 39 40 39 32 32 32 30 31 31 32 32 30 28 28 26 25 24 28 24 20 22 28 31 32 33
41 40 39 40 41 40 37 34 40 44 41 41 44 44 45 38 37 36 41 33 38 38 37 36 34 32 32 30 27 32 30 31 29 29 28 32 31 27 29 30 30 34 33 36
40 39 39 40 40 39 35 35 39 41 38 39 41 42 46 47 45 43 36 40 43 41 42 39 37 33 33 29 30 32 32 33 29 30 32 34 37 38 37 37 35 37 38 34
39 39 39 39 40 40 37 36 40 41 40 35 37 46 47 50 48 48 45 42 46 45 43 39 37 34 38 33 34 33 34 34 32 32 35 38 38 38 36 36 37 37 34 33
38 38 40 40 40 41 39 40 43 43 40 36 37 41 46 50 50 50 49 47 45 41 39 38 36 37 37 36 36 34 36 33 31 30 32 31 33 37 36 36 35 35 33 32
39 39 39 40 41 42 39 35 43 43 42 37 32 39 42 49 50 50 49 48 46 42 38 37 40 41 37 33 32 34 37 37 36 33 38 37 36 35 35 34 33 33 32 31
40 40 40 41 42 41 37 36 42 45 42 36 34 34 41 48 49 47 47 47 45 43 41 40 39 41 36 31 30 34 38 38 38 37 36 35 35 34 33 32 31 31 30 30
41 41 42 42 43 44 39 46 45 42 38 38 34 34 38 46 43 43 45 42 42 42 41 40 39 40 37 36 35 36 36 36 35 35 35 35 33 32 31 31 31 30 30 30
42 43 44 43 40 35 38 46 44 44 37 33 33 33 32 42 41 41 41 41 38 40 39 39 40 37 37 37 36 36 36 36 33 33 33 32 31 31 31 30 29 29 28 28
43 40 37 34 38 46 43 41 36 37 39 39 34 38 36 39 37 36 37 37 36 35 37 39 37 36 37 38 38 37 35 34 33 32 32 31 30 30 29 28 28 28 28 28
38 35 36 41 43 42 39 34 34 35 34 36 36 37 35 41 36 36 36 34 35 33 35 35 34 33 36 38 39 39 37 36 36 35 34 33 31 29 27 27 28 28 28 26
39 42 43 43 37 36 32 31 33 33 32 35 35 37 38 39 40 36 34 32 32 32 36 34 31 33 36 36 36 36 35 35 34 34 33 32 30 29 29 29 28 27 23 22
40 39 38 37 33 29 27 27 30 31 33 35 37 35 36 36 36 33 31 30 30 34 32 31 31 35 36 36 35 35 35 35 34 33 33 32 31 30 29 27 24 21 20 20
36 32 29 30 28 29 30 31 31 33 34 35 35 34 35 34 33 32 30 31 30 28 27 27 32 34 35 34 34 33 32 32 32 31 30 29 28 26 25 24 21 18 17 18
31 31 26 27 30 31 32 32 33 33 35 35 34 34 34 32 31 31 32 29 26 26 25 29 32 33 33 32 32 31 30 30 29 27 26 26 25 24 21 18 17 18 18 16
31 29 29 31 30 29 30 31 32 33 34 34 34 32 31 30 31 28 26 26 24 26 29 32 32 31 31 30 30 30 30 29 28 27 26 25 23 20 17 16 16 16 15 14
29 27 28 29 29 27 28 29 29 33 34 30 31 29 28 31 26 24 26 24 26 29 30 31 31 30 30 30 29 29 29 28 27 26 25 21 19 17 14 13 14 14 14 15

GFSNW_sfc_30mbdewp_063.txt.gz
Dewpoint
46 46 45 43 43 44 43 39 31 40 44 35 35 33 34 35 34 35 34 34 34 31 22 21 20 19 20 23 22 20 24 21 16 19 28 29 28 27 27 23 21 24 22 19
45 46 45 43 42 44 42 35 35 42 40 29 30 33 34 33 33 34 33 31 34 36 29 18 22 22 24 24 22 22 26 21 15 17 24 31 28 27 27 27 26 22 21 20
45 46 45 43 42 44 41 36 30 38 38 29 29 30 32 33 34 34 34 33 34 33 31 29 22 22 27 26 23 26 25 22 17 15 15 23 25 27 28 25 23 23 23 23
46 46 45 43 43 43 41 36 31 35 30 30 28 30 30 30 31 34 34 33 32 33 28 29 25 26 32 32 33 28 24 18 22 19 18 23 22 23 28 26 26 23 24 23
46 46 45 43 43 43 39 33 33 31 33 31 29 30 30 30 32 33 32 30 32 30 31 28 30 29 32 30 33 30 29 21 24 21 25 23 21 22 24 27 26 25 24 23
46 46 45 43 43 42 38 38 39 32 30 32 29 28 29 32 32 33 33 33 32 31 30 33 32 35 35 32 31 31 28 25 24 20 25 25 23 24 24 25 26 25 23 25
47 46 44 43 43 41 38 38 37 32 26 32 30 27 32 30 32 31 33 35 32 32 34 33 34 35 34 36 34 33 29 27 26 22 24 20 24 27 26 25 25 26 24 24
45 46 44 43 43 40 38 38 36 34 27 32 30 29 29 32 32 33 33 34 36 35 33 31 24 27 31 34 37 34 31 27 24 22 22 23 21 23 24 22 18 23 24 25
46 45 44 43 42 41 38 39 40 39 31 29 33 31 30 31 32 34 34 36 39 37 32 30 26 27 29 30 33 34 32 30 26 23 20 19 22 23 26 22 17 22 25 27
46 44 44 43 42 42 37 39 41 39 35 36 34 31 30 32 32 32 34 33 35 35 30 28 27 27 32 31 30 31 30 28 25 23 22 23 26 27 24 19 20 23 28 31
45 44 43 42 42 42 38 40 41 39 37 37 41 38 33 32 33 30 34 33 34 36 30 29 28 28 27 28 33 32 29 28 26 25 23 22 30 23 22 25 26 27 32 35
44 43 43 42 42 43 39 37 43 43 38 40 43 43 43 34 33 33 37 33 35 35 32 32 31 31 32 29 25 34 31 30 27 27 26 32 28 27 27 28 27 31 33 36
43 43 42 42 41 41 38 37 40 39 36 38 39 41 45 47 41 37 37 39 41 40 41 37 35 32 33 30 30 31 33 35 31 30 31 32 34 36 37 36 32 35 37 35
42 42 41 42 43 40 36 36 40 38 38 34 37 45 46 48 45 40 39 40 45 44 42 39 37 32 36 31 32 32 34 34 33 32 33 36 37 38 38 36 38 37 35 34
42 41 41 42 40 37 37 40 40 39 38 33 36 41 45 49 47 46 43 43 43 41 39 38 37 37 37 36 36 34 36 33 31 29 32 30 30 36 38 36 37 35 33 32
41 41 42 41 38 38 35 33 40 42 40 36 33 39 41 49 50 48 47 47 44 42 39 37 38 40 38 34 33 35 37 37 37 34 37 36 36 36 36 36 35 34 32 31
40 41 41 40 39 36 34 34 40 40 42 35 32 34 41 48 48 47 46 48 46 43 40 39 40 41 37 33 33 33 37 38 38 37 36 35 35 35 34 33 32 31 30 30
39 38 37 39 39 38 36 44 43 41 38 37 31 33 39 45 42 42 45 43 44 42 41 39 39 39 36 35 34 37 36 36 35 35 35 35 33 32 31 31 31 31 30 30
39 40 40 40 37 34 37 45 44 44 38 32 32 32 33 41 39 39 40 41 38 40 39 39 39 37 37 37 36 36 36 36 34 33 33 33 32 31 31 31 31 30 29 28
40 39 35 32 37 42 45 42 38 38 37 36 32 35 35 38 35 35 36 36 35 34 38 40 38 37 37 38 37 37 36 34 33 33 32 31 31 31 30 30 30 29 28 26
37 36 35 39 45 42 39 32 32 33 32 35 34 36 36 40 35 34 35 33 32 31 35 37 35 34 36 38 39 37 35 34 37 37 34 33 32 30 29 29 29 29 27 24
38 40 42 42 36 35 31 31 33 33 29 35 33 35 37 38 39 35 34 32 32 30 36 35 32 33 35 37 37 37 37 36 34 34 33 32 31 30 29 29 29 28 27 26
40 37 35 35 33 28 27 26 29 29 33 35 36 35 37 36 35 33 32 30 30 33 32 31 30 34 35 35 35 35 35 33 32 31 30 30 30 30 28 27 27 27 25 24
33 32 28 29 28 29 29 30 30 32 34 35 36 34 35 34 33 32 30 32 31 29 28 26 31 33 34 34 34 32 31 31 31 30 29 28 27 26 26 26 26 25 22 20
30 31 26 27 30 31 31 32 32 33 35 35 34 34 34 32 31 32 31 29 26 26 25 29 31 32 32 31 31 30 29 29 28 27 26 25 25 24 24 24 23 20 19 18
31 27 27 29 28 27 28 30 30 32 34 35 34 32 30 29 30 28 26 25 23 25 28 31 31 30 30 30 29 29 28 27 26 26 26 25 23 22 20 19 18 17 17 16
28 24 26 25 26 23 25 27 27 31 33 30 31 27 25 29 24 22 25 22 25 27 28 30 30 29 28 28 28 28 27 26 25 25 24 22 21 19 15 13 14 15 16 16

GFSNW_sfc_30mbdewp_069.txt.gz
Dewpoint
46 46 46 46 47 46 45 40 32 37 44 34 34 30 29 28 24 20 22 29 26 20 25 23 20 24 16 19 18 19 20 19 17 21 21 20 22 22 23 20 18 21 20 19
45 46 46 46 47 46 43 36 35 38 41 28 31 29 27 26 24 21 24 26 27 29 32 25 21 20 22 22 19 20 21 18 18 17 20 24 22 23 23 23 22 20 25 21
46 46 46 46 46 47 43 36 30 37 40 30 27 24 23 22 25 26 21 26 26 27 30 32 26 23 23 27 23 23 25 18 19 17 17 20 20 18 21 22 24 22 20 17
46 46 46 46 47 47 43 36 30 33 29 32 28 24 20 20 19 24 27 25 27 26 26 27 30 27 27 29 26 27 23 19 18 17 17 15 15 17 17 19 20 19 19 17
47 46 45 46 47 47 41 33 28 29 27 32 29 26 22 17 17 17 21 25 24 26 24 27 28 31 27 23 26 26 25 22 21 16 17 16 14 13 15 14 13 14 14 14
45 46 46 45 46 47 39 38 31 29 29 29 28 27 24 18 16 17 19 20 22 24 26 34 34 33 31 30 31 27 25 26 20 19 18 18 18 17 16 16 17 17 17 18
44 45 46 46 47 46 40 38 31 30 26 29 26 25 24 20 17 16 18 22 21 23 34 34 35 34 33 29 29 31 27 26 25 25 27 21 22 22 20 18 18 19 20 19
44 44 45 47 47 47 41 37 34 30 29 25 26 24 23 23 18 18 17 22 27 28 33 30 27 29 31 31 28 28 31 30 27 26 25 21 19 23 23 20 18 19 19 19
43 44 44 44 46 47 42 38 37 33 30 26 25 24 23 21 19 18 20 22 28 33 29 29 20 25 27 30 28 32 31 34 31 29 24 22 21 22 26 22 20 22 21 21
43 44 44 44 44 46 43 40 39 35 28 26 24 23 25 23 21 19 20 26 36 33 32 30 23 20 23 25 34 32 33 34 34 30 27 23 21 23 27 23 24 22 23 23
42 43 44 44 43 45 43 41 40 36 30 28 28 28 25 26 24 21 23 29 34 33 31 28 24 25 27 20 25 33 32 31 34 33 30 27 29 28 24 28 28 29 27 26
43 43 44 44 43 45 43 40 40 39 34 30 38 30 38 30 26 24 26 31 30 30 28 27 25 30 31 25 21 25 33 33 32 30 30 32 31 28 30 31 33 31 32 30
44 43 44 44 45 44 43 41 41 38 35 35 36 35 38 40 38 38 29 33 28 28 29 28 32 31 30 29 28 21 24 24 30 31 30 31 33 33 32 34 34 32 35 33
43 44 45 44 45 44 43 40 40 36 35 31 27 31 36 40 42 41 40 36 31 29 31 33 36 33 30 31 24 24 23 24 26 26 27 26 33 37 36 35 36 35 34 33
44 44 44 45 43 43 41 40 38 36 29 28 27 36 37 36 43 41 41 41 33 35 34 36 36 27 22 33 34 28 25 28 32 30 29 32 31 39 41 38 37 38 36 35
44 45 45 43 43 41 38 36 40 37 38 33 29 36 36 36 37 41 42 42 34 35 33 34 29 23 27 32 29 25 22 27 32 33 38 39 40 38 37 38 39 39 38 36
45 44 43 42 39 37 35 34 36 39 36 32 27 30 37 38 35 33 39 40 37 36 37 39 35 31 36 36 32 24 26 29 35 39 39 37 38 37 37 38 38 37 37 36
42 42 42 42 42 40 38 39 40 36 33 35 28 30 34 41 36 37 40 38 37 36 37 37 38 40 40 34 31 29 29 34 38 39 39 38 38 37 36 36 35 35 34 34
41 41 40 40 38 37 39 40 37 34 31 29 31 27 29 40 41 42 39 37 34 39 36 38 35 35 35 29 29 30 33 34 36 37 36 36 37 35 35 35 35 34 33 32
39 37 33 34 39 41 39 37 37 33 32 35 32 35 29 35 38 38 39 40 38 35 39 37 35 34 33 32 39 39 39 39 38 37 37 36 36 35 35 35 35 35 33 32
35 33 35 39 41 39 37 32 31 30 30 32 33 34 30 37 34 36 39 37 38 34 36 37 37 33 35 39 40 40 39 38 38 37 37 36 36 35 35 34 34 33 32 30
38 37 37 36 35 32 30 29 31 30 26 32 33 32 33 36 43 36 38 34 36 32 37 35 32 32 36 38 38 38 38 38 37 36 35 35 34 34 32 30 28 28 28 28
41 30 32 32 31 28 28 25 28 29 35 35 34 32 36 40 39 36 36 32 32 36 32 30 30 32 34 34 33 33 34 34 33 32 31 30 29 29 28 27 28 28 27 27
34 32 28 29 28 31 31 30 33 35 37 37 37 36 37 38 35 35 31 33 35 31 29 29 30 30 30 31 31 29 28 28 28 28 28 28 28 28 29 29 29 28 27 27
32 31 25 26 30 30 31 33 34 34 39 38 37 37 37 34 33 34 33 30 28 28 27 28 29 30 30 28 28 27 27 27 28 29 28 28 28 27 27 28 27 26 25 24
27 24 26 27 28 26 26 28 29 31 33 40 37 34 32 30 32 30 28 29 25 25 28 29 29 28 28 28 28 28 28 28 28 28 27 26 25 24 24 24 24 24 23 23
25 23 25 26 25 22 23 25 26 29 33 31 33 29 26 32 26 23 24 22 25 28 28 30 29 28 28 28 28 28 28 27 27 27 25 23 21 20 18 17 16 17 18 19

GFSNW_sfc_30mbdewp_072.txt.gz
Dewpoint
45 46 46 46 47 47 46 41 32 40 41 34 34 30 29 27 20 21 24 24 21 15 15 26 20 20 19 23 21 19 20 19 19 17 19 20 21 21 24 23 20 24 26 24
45 46 46 46 46 46 44 36 36 40 39 28 29 30 28 26 24 19 20 21 23 24 27 20 24 22 25 27 25 19 21 20 19 18 19 22 20 20 22 23 24 22 23 24
45 46 46 46 46 46 45 36 30 37 39 32 28 27 26 25 26 22 21 23 23 32 25 29 28 24 24 25 27 30 29 21 20 20 21 23 20 18 20 23 24 25 24 22
45 46 46 46 46 47 45 35 32 33 30 32 29 27 23 22 22 22 23 21 23 27 33 22 25 29 26 24 27 27 28 25 22 19 19 19 19 20 20 19 20 22 26 21
45 46 46 46 46 46 42 32 31 30 27 30 32 30 27 22 20 18 19 21 22 26 33 34 29 24 28 28 29 28 26 26 22 22 19 19 17 19 19 18 17 17 18 18
46 46 46 46 46 46 41 39 34 31 29 31 30 29 27 24 21 18 17 18 21 26 35 38 43 37 34 32 31 33 28 26 23 22 22 18 17 18 16 14 16 16 15 17
43 45 46 47 46 46 43 39 35 32 30 27 31 27 27 24 22 20 17 18 17 26 34 43 42 40 35 33 31 31 31 29 26 26 24 20 21 22 19 18 18 19 18 18
43 44 45 46 47 46 44 41 35 32 31 27 25 28 25 26 25 22 19 18 19 20 26 33 33 34 32 31 31 31 31 32 29 25 25 23 21 22 21 20 21 22 19 20
43 43 43 44 45 47 45 42 39 35 30 28 25 26 26 25 24 25 23 22 22 25 30 31 30 28 29 26 25 30 30 31 32 29 25 23 26 24 25 25 21 23 22 22
43 43 44 44 44 45 45 42 41 36 31 29 27 28 27 26 25 24 24 23 25 33 29 32 31 29 20 24 28 29 30 32 31 31 29 26 26 25 26 22 24 26 26 24
43 42 43 44 44 44 46 42 43 38 35 30 30 31 32 29 27 24 23 22 25 32 28 29 30 26 23 19 30 33 33 30 31 31 28 25 28 27 23 27 31 30 28 28
44 42 43 44 44 43 45 40 43 41 37 36 39 36 35 36 32 26 26 23 29 34 30 30 29 26 27 23 21 33 28 37 31 31 31 35 35 30 34 34 33 35 35 34
44 42 43 44 44 43 42 41 42 41 39 38 39 35 37 39 38 37 26 26 26 34 36 30 29 26 28 28 28 23 29 33 28 26 33 37 35 36 35 34 36 35 34 36
43 42 42 44 44 44 43 42 42 42 39 34 33 38 34 38 38 39 37 34 37 35 36 35 32 30 29 31 27 25 27 28 28 28 27 28 31 31 37 37 37 37 36 35
43 43 43 44 43 44 43 43 43 43 33 32 34 35 34 35 35 37 37 36 38 40 39 34 32 33 31 33 32 30 23 23 26 30 29 31 33 39 39 40 40 39 38 37
43 43 44 44 44 43 42 38 43 43 42 33 28 30 33 34 35 37 35 35 38 41 40 37 33 33 31 25 28 29 27 23 23 31 34 39 41 38 38 38 39 39 39 39
44 44 43 44 45 43 38 35 41 43 41 33 30 30 34 33 34 37 39 39 41 42 40 39 36 33 31 28 28 23 23 23 25 27 39 37 38 38 38 38 37 37 38 37
43 44 43 43 41 39 39 41 41 42 35 32 29 29 31 36 35 35 38 36 39 38 38 39 37 36 34 29 27 29 30 27 37 39 40 39 39 38 36 36 36 35 35 35
43 43 41 39 39 37 39 39 39 38 33 28 32 26 29 37 35 35 37 37 33 40 38 37 38 37 33 33 29 29 29 28 29 38 37 37 37 36 36 35 35 34 34 33
41 37 37 34 39 39 38 37 33 31 31 34 31 31 31 33 32 36 33 35 34 33 37 36 34 33 33 38 39 40 40 39 39 38 37 37 36 36 36 36 36 34 33 34
36 37 35 37 39 39 35 31 30 29 28 31 31 33 33 35 30 31 38 35 35 32 34 34 33 31 35 38 40 40 39 39 38 38 38 38 37 36 35 33 31 30 28 27
36 38 39 39 36 34 30 27 30 28 25 30 33 33 34 35 35 33 38 34 37 32 39 34 31 31 35 35 34 37 38 37 36 35 34 33 32 32 31 29 28 28 27 27
37 31 32 31 31 28 25 24 26 28 33 35 34 32 34 33 35 34 34 32 32 37 34 31 29 31 32 32 32 31 32 32 31 31 30 29 28 28 27 26 27 27 26 26
34 33 28 30 28 28 28 30 33 34 38 35 35 32 33 34 32 34 31 33 35 32 29 27 28 29 29 29 29 27 27 28 28 28 28 27 27 27 28 28 27 26 25 25
30 29 25 25 29 28 29 32 32 31 35 37 36 36 36 34 33 34 33 31 27 26 25 26 28 29 28 27 28 28 28 28 28 28 28 27 27 26 26 26 25 24 23 22
25 24 25 26 25 22 24 25 25 29 29 36 38 35 32 30 32 29 26 27 21 24 26 28 29 28 28 28 28 28 28 28 27 27 26 26 24 24 24 24 24 24 24 23
25 25 25 26 23 22 21 23 25 28 30 32 32 27 27 31 26 22 23 21 25 27 27 28 29 28 28 28 28 28 28 27 27 26 26 25 23 20 19 18 18 18 19 19

GFSNW_sfc_30mbdewp_078.txt.gz
Dewpoint
41 42 42 43 44 45 45 40 32 42 44 33 33 26 23 25 23 26 25 23 21 20 20 21 22 23 25 37 37 23 23 23 21 20 22 23 21 20 22 22 24 26 24 22
41 42 42 43 44 45 43 36 35 43 40 27 29 32 27 26 25 25 26 25 24 23 21 19 28 30 35 36 39 31 23 22 20 18 20 24 22 22 23 24 26 24 25 24
41 42 42 44 44 45 44 33 29 36 39 35 29 29 30 26 26 25 26 27 27 26 24 24 26 32 34 39 40 40 36 25 20 17 19 24 23 22 22 22 21 22 25 24
42 42 44 44 45 45 44 33 31 34 29 31 30 28 29 27 26 28 28 27 27 26 25 24 23 28 36 36 39 39 32 24 27 22 26 27 26 25 22 22 23 20 21 24
44 43 44 44 45 46 41 31 32 35 31 31 32 28 29 27 28 26 24 26 25 25 24 24 21 27 31 36 39 38 36 26 29 28 30 29 28 26 24 22 21 22 23 24
43 44 44 44 45 45 39 39 36 34 30 31 30 29 27 30 28 27 27 26 25 25 25 25 27 34 36 38 38 36 37 30 28 26 29 28 27 28 26 25 24 22 21 23
44 44 44 44 45 45 41 39 36 32 29 29 29 28 31 29 29 29 28 29 27 26 27 28 34 37 38 37 37 38 35 35 29 25 26 25 30 28 26 24 24 23 22 21
44 44 44 45 45 45 43 42 37 33 28 32 30 29 28 30 31 29 28 29 30 30 25 25 26 27 28 31 35 33 37 36 30 25 25 29 28 27 23 22 21 23 21 20
43 44 44 44 45 46 44 42 43 36 31 30 32 31 30 28 29 29 29 30 31 30 26 26 21 21 23 24 33 38 38 37 33 31 24 22 25 28 29 27 22 25 23 22
42 42 43 43 44 45 45 42 44 39 33 33 31 32 32 31 29 28 28 29 29 30 26 23 21 21 24 20 23 28 32 34 31 30 30 31 33 32 28 24 23 26 26 25
43 43 43 43 43 43 43 42 45 40 36 35 32 33 32 31 30 27 28 28 29 28 24 23 23 22 22 26 27 27 29 31 32 33 30 28 36 33 26 28 29 32 31 31
43 44 44 43 43 43 43 39 45 43 38 37 37 32 34 33 31 31 30 29 27 28 26 27 27 24 28 25 22 27 26 34 32 31 31 34 37 39 39 38 35 35 36 37
44 44 44 44 43 43 43 41 41 42 38 38 36 35 35 37 36 37 31 34 33 34 35 30 28 24 27 25 24 23 33 38 33 32 32 35 35 35 36 36 37 37 36 37
44 44 44 44 43 43 43 41 42 41 36 32 35 39 34 37 38 38 37 35 40 39 37 32 28 25 31 26 24 28 27 34 33 33 31 32 32 33 31 36 37 41 40 36
44 44 44 44 44 44 42 41 42 42 38 32 34 38 38 36 39 39 41 40 38 36 33 32 29 33 32 34 33 30 29 31 30 27 28 28 29 28 31 34 36 40 38 37
43 44 44 44 45 44 40 36 42 43 45 37 30 36 37 38 37 36 38 38 39 38 36 35 37 40 34 30 29 31 30 30 32 30 32 32 34 39 39 39 38 38 39 39
43 44 44 44 45 41 37 35 39 42 44 37 33 32 37 39 39 38 39 40 38 37 37 36 35 35 35 33 30 31 31 33 33 31 39 39 38 37 38 37 38 36 34 35
44 44 44 44 42 41 39 43 43 43 41 37 32 32 35 38 36 34 39 36 38 38 35 37 32 36 36 31 33 35 37 35 32 39 40 39 38 36 37 36 35 32 29 28
43 43 43 40 39 38 41 43 45 46 39 30 29 28 29 37 36 36 36 36 33 35 33 32 31 30 29 32 35 37 39 38 32 39 38 37 36 36 35 34 31 29 26 25
42 40 36 32 37 44 43 38 35 36 35 33 30 31 31 34 33 33 33 33 30 28 32 35 30 28 32 38 37 37 36 36 39 37 36 36 35 33 31 29 28 27 25 23
37 34 32 40 44 38 35 31 30 31 27 31 31 30 30 34 28 30 33 31 31 26 29 30 29 29 33 37 36 35 35 33 34 37 36 35 32 30 28 26 25 24 24 23
36 37 40 38 35 31 26 27 29 25 24 32 31 33 31 33 34 28 31 31 32 26 34 30 27 28 32 32 31 32 32 32 31 32 31 30 29 27 26 25 24 24 23 22
39 33 32 29 30 24 21 22 26 28 32 33 33 30 31 33 32 29 31 29 28 35 30 28 25 28 29 30 29 29 30 29 28 27 27 27 26 26 25 23 23 23 22 22
32 26 22 22 20 23 22 25 28 29 31 32 31 31 30 31 28 30 28 32 33 29 25 21 24 25 27 28 28 27 26 27 26 25 25 24 23 23 23 23 23 22 21 21
24 23 20 21 23 23 24 26 26 27 29 33 32 33 33 30 30 30 30 28 20 20 18 23 24 26 26 26 26 25 24 24 23 23 22 22 22 21 21 22 22 22 21 20
22 20 19 21 21 19 21 21 22 26 26 31 32 33 31 29 25 22 20 20 16 19 23 25 25 24 24 23 23 23 23 23 23 22 22 22 21 20 20 20 20 20 19 18
22 18 21 20 19 18 20 21 21 25 27 28 29 23 22 24 20 18 20 17 20 23 24 25 25 23 23 23 23 23 22 22 22 22 22 21 22 22 19 18 19 19 19 19

GFSNW_sfc_30mbdewp_084.txt.gz
Dewpoint
39 39 39 40 41 41 40 36 29 40 43 31 29 25 24 23 20 24 21 24 22 18 20 18 13 21 23 28 35 31 37 35 28 20 19 20 21 19 20 19 22 25 21 19
39 39 40 39 41 40 38 32 32 42 39 25 24 27 25 26 23 23 24 24 24 23 19 13 19 19 26 35 36 36 33 33 28 23 22 22 21 22 23 26 26 22 20 20
38 39 40 40 40 40 39 33 27 33 37 32 24 23 24 25 28 24 22 26 26 25 24 26 24 24 24 26 22 36 35 31 30 27 29 31 28 20 21 23 21 21 22 23
39 39 39 41 41 40 38 33 29 32 25 29 29 24 23 23 25 27 25 22 23 23 21 19 18 20 20 21 22 36 35 29 31 32 35 35 33 29 21 21 22 21 22 23
40 40 41 41 40 41 36 30 30 33 32 29 31 28 25 23 25 26 26 24 26 24 22 21 20 23 23 22 35 34 37 29 32 28 27 31 30 29 24 25 27 27 25 24
40 40 40 39 39 39 34 34 37 33 29 27 29 27 27 27 25 27 27 27 25 26 27 27 27 27 27 26 24 31 33 32 29 22 27 30 27 24 26 27 29 27 24 26
41 41 41 41 40 39 37 35 36 31 26 29 27 27 28 26 27 25 27 29 28 29 29 29 31 30 29 29 28 29 29 31 31 26 29 24 29 28 26 26 26 29 29 28
41 41 42 42 42 41 40 38 38 33 27 29 30 28 28 30 28 28 28 30 31 31 33 31 29 26 29 27 28 27 32 32 29 24 25 30 30 30 29 28 26 27 27 29
44 44 43 42 43 43 42 40 40 38 29 26 29 28 28 28 30 31 32 33 32 33 32 29 23 20 21 20 27 31 33 33 29 29 25 21 26 31 36 32 26 31 31 30
41 40 42 43 43 43 42 41 42 38 32 30 29 27 28 29 31 30 30 31 32 33 30 25 22 21 26 20 16 29 30 30 27 28 27 30 34 39 39 27 27 34 33 31
42 42 41 41 43 44 43 40 43 38 33 35 32 31 29 30 30 29 31 32 31 31 27 26 26 25 24 22 22 25 23 25 28 30 28 24 37 37 35 38 38 39 38 38
42 42 42 42 42 42 45 38 43 42 37 36 37 34 33 31 31 32 35 31 30 31 27 27 25 23 25 22 17 23 21 25 24 28 29 32 34 35 35 38 42 39 38 38
41 41 42 42 42 42 42 41 42 41 36 35 36 37 37 35 33 35 31 31 32 34 32 33 28 23 25 20 22 20 23 32 28 31 27 31 30 30 34 38 39 41 35 38
42 42 42 42 42 43 42 40 43 40 35 30 34 37 37 37 35 35 33 32 36 36 37 32 34 30 28 23 22 23 23 27 25 28 32 33 34 35 34 34 37 38 36 39
43 43 43 43 42 42 43 41 42 43 36 31 33 37 37 36 35 35 35 34 33 34 35 34 32 34 34 32 31 27 26 24 25 23 26 31 29 31 35 36 36 39 41 41
44 44 44 43 44 43 42 36 41 42 42 35 29 36 35 36 35 35 36 36 36 35 34 35 35 36 32 30 29 28 29 30 32 29 32 33 33 34 38 39 36 37 37 39
42 43 44 44 44 43 36 34 39 41 41 34 30 32 36 35 35 34 36 38 36 35 37 35 35 34 35 33 29 30 30 30 31 32 36 33 29 33 38 35 35 34 30 28
42 42 43 43 45 43 38 41 41 41 37 37 29 31 34 36 35 33 36 34 36 38 36 36 34 35 35 30 30 30 30 30 33 36 38 36 37 38 34 33 31 27 25 24
44 43 44 43 39 34 39 43 41 41 37 31 30 29 28 37 35 36 36 36 31 37 33 32 34 31 29 32 30 29 30 33 32 35 35 37 38 35 32 30 27 25 23 22
43 41 34 31 39 43 42 39 36 35 37 34 30 32 31 35 34 33 33 35 31 28 32 34 31 29 30 33 35 36 36 37 36 34 34 36 35 32 29 27 25 23 22 22
37 34 34 41 41 38 35 30 30 30 28 31 31 31 31 34 31 31 32 31 30 25 25 29 27 26 31 33 33 33 33 34 33 33 33 34 34 27 25 23 23 23 22 21
39 38 40 38 35 32 29 28 29 29 27 30 30 31 32 33 35 33 32 28 29 22 30 28 23 28 29 30 29 30 30 31 30 29 28 27 26 25 24 23 22 21 21 20
36 31 29 27 24 24 23 22 26 26 30 30 30 29 31 32 32 31 30 27 25 30 28 27 24 25 26 27 29 27 28 28 27 26 26 25 24 24 22 21 21 20 19 19
26 21 18 18 15 19 19 21 24 26 29 30 30 29 28 29 28 28 26 28 31 26 24 21 22 24 25 25 26 24 24 24 24 24 23 23 22 21 21 21 20 18 17 17
20 18 16 17 20 20 21 23 25 24 28 31 31 31 30 28 28 27 27 26 21 18 17 19 22 23 23 23 23 22 22 22 21 22 21 21 20 19 19 19 18 17 17 15
18 15 15 17 16 15 16 17 19 23 23 30 33 30 27 24 23 20 18 18 14 16 20 22 22 21 21 21 21 21 21 21 20 20 20 19 18 17 17 18 18 17 16 15
17 14 17 16 15 13 15 17 17 22 25 25 23 20 19 22 18 15 17 13 17 20 20 22 22 21 20 21 21 21 20 20 19 19 19 18 18 18 16 13 14 15 14 13

GFSNW_sfc_30mbdewp_087.txt.gz
Dewpoint
39 38 39 38 39 40 38 34 27 39 42 29 28 24 22 22 22 23 23 24 21 16 15 16 9 10 18 20 35 30 34 35 30 27 28 26 20 20 19 17 16 27 22 20
39 37 37 39 40 38 37 31 29 40 39 23 23 24 23 24 21 20 24 24 26 25 15 2 16 18 22 28 28 22 24 29 19 22 23 28 28 28 24 23 23 19 19 21
37 38 38 39 38 38 37 30 24 31 36 32 25 23 24 24 27 23 22 24 26 26 24 24 23 24 23 26 21 25 33 29 16 13 28 31 26 29 31 33 23 20 21 20
37 37 38 39 38 37 38 32 28 28 25 28 28 24 23 21 21 26 26 23 22 24 22 21 20 19 19 21 29 27 32 28 29 28 28 28 30 28 30 31 31 23 20 21
37 37 38 39 40 40 36 29 26 32 29 27 28 29 24 21 22 25 25 22 23 21 21 21 17 21 24 22 29 34 36 29 31 28 30 29 25 26 26 31 31 30 24 22
37 38 40 39 39 40 34 34 34 29 26 24 27 26 25 26 23 25 25 26 25 25 26 26 27 26 26 27 27 26 26 29 28 23 27 26 21 24 29 30 29 27 24 26
39 40 40 40 39 39 35 32 30 28 24 23 23 23 29 29 26 23 27 28 27 30 33 34 33 31 30 29 29 29 28 29 28 23 25 17 16 28 31 31 30 28 28 28
40 41 41 41 41 40 37 35 30 27 21 26 26 27 25 27 28 27 26 28 32 35 33 30 27 28 28 28 29 29 29 27 23 21 18 20 19 28 29 34 34 34 29 29
41 42 42 41 41 41 39 37 35 31 27 21 25 26 30 28 28 27 28 31 35 37 33 29 23 20 22 21 27 29 28 28 25 24 21 17 25 37 39 36 30 38 38 34
43 43 42 42 43 43 40 39 38 34 28 32 28 26 26 30 28 28 31 32 34 37 30 25 23 19 24 21 18 27 27 28 24 22 21 22 35 38 41 28 28 37 37 39
42 42 42 42 43 42 42 39 41 35 29 29 33 31 28 28 29 29 34 32 33 31 27 26 24 23 24 21 21 29 25 26 25 25 23 21 35 37 30 37 38 38 38 40
41 39 39 40 42 43 42 38 42 42 34 34 36 35 32 30 33 32 35 32 33 33 30 27 26 25 25 23 18 22 21 27 27 28 27 35 33 34 38 39 36 38 38 42
41 41 41 40 40 41 43 40 41 40 35 34 36 35 37 37 33 36 32 35 37 36 36 31 28 24 26 22 23 20 23 29 27 28 27 30 32 34 34 36 36 36 37 41
42 42 42 42 41 40 41 39 41 39 34 29 32 37 35 38 38 36 35 33 36 37 37 33 32 29 30 25 23 23 23 26 25 25 27 30 28 34 32 31 34 38 39 40
42 42 42 42 42 41 41 41 42 41 34 30 31 37 36 36 37 36 36 35 35 35 35 33 32 35 34 34 32 29 27 25 25 24 25 26 26 31 33 33 38 38 41 43
42 43 42 42 42 41 41 35 40 44 42 35 29 37 36 36 37 35 36 36 35 36 35 33 36 36 34 31 29 30 30 30 30 27 31 34 33 35 36 38 36 35 36 44
43 43 43 43 42 41 36 34 39 41 41 32 29 31 37 37 36 35 35 36 36 36 35 34 34 34 37 33 29 29 30 31 31 31 32 32 31 31 37 37 33 29 29 30
44 44 43 43 44 42 38 41 42 40 37 36 29 29 34 36 34 32 36 35 36 36 35 36 34 34 34 30 31 30 29 30 30 30 35 33 36 36 36 33 30 28 26 26
43 43 45 43 39 33 38 42 41 41 35 29 30 27 27 36 35 37 36 37 30 36 32 33 34 32 28 31 31 30 33 33 33 36 36 36 35 37 34 31 29 27 25 25
42 41 34 31 35 43 42 39 35 35 34 34 30 33 30 35 35 33 32 34 31 28 30 34 31 29 31 34 35 34 34 34 34 35 34 35 35 34 30 28 26 26 24 23
37 32 34 40 42 37 34 29 29 30 27 30 30 32 30 35 31 30 34 30 31 26 27 30 28 26 30 31 31 31 31 32 33 32 32 31 32 33 27 24 24 24 23 22
39 39 39 38 34 31 29 27 29 27 25 30 29 31 33 33 36 32 31 29 29 23 30 28 23 26 27 27 29 29 29 30 30 29 27 27 26 26 25 23 23 22 21 19
32 31 28 28 25 23 22 22 25 25 30 30 31 30 32 32 34 31 31 27 25 30 27 25 22 24 25 25 26 27 27 27 27 26 26 25 24 24 23 21 21 20 18 18
23 20 17 16 14 17 17 20 24 26 29 30 31 29 29 30 29 30 26 29 30 25 24 20 20 22 23 24 24 23 23 24 23 23 23 23 22 21 21 20 19 17 15 15
18 17 15 15 19 18 20 21 24 23 27 31 31 31 29 28 27 28 26 26 21 18 15 18 21 22 22 21 22 22 21 21 21 21 20 19 19 18 18 19 18 17 15 14
16 13 14 14 15 14 15 16 18 22 23 28 32 30 25 22 22 19 16 17 13 15 18 20 21 20 20 20 20 20 20 20 19 19 18 18 17 16 16 16 15 15 14 13
14 12 15 14 13 12 14 16 16 22 24 23 21 18 18 20 17 13 15 12 14 18 19 20 21 20 20 21 20 20 20 19 18 17 17 16 16 16 14 11 13 13 12 12